Regional Weather Roundup
Issued by NWS

Home | Current Version | Previous Version | Graphics & Text | Print | Product List | Glossary On
Versions: 1 2 3 4 5 6 7 8 9 10 11 12 13 14 15 16 17 18 19 20 21 22 23 24 25 26 27 28 29 30 31 32 33 34 35 36 37 38 39 40 41 42 43 44 45 46 47 48 49 50
000
ASUS43 KMKX 200200
RWRWI

WISCONSIN REGIONAL WEATHER ROUNDUP
NATIONAL WEATHER SERVICE MILWAUKEE/SULLIVAN WI
900 PM CDT FRI SEP 19 2014

NOTE: "FAIR" INDICATES FEW OR NO CLOUDS BELOW 12,000 FEET WITH NO
SIGNIFICANT WEATHER AND/OR OBSTRUCTIONS TO VISIBILITY.

WIZ001-002-006>008-014>016-023>028-200300-
NORTHWEST WISCONSIN

CITY           SKY/WX    TMP DP  RH WIND       PRES   REMARKS
SUPERIOR ARPT  FOG       57  57  99 CALM      29.64R VSB 1/4
ASHLAND        CLOUDY    66  59  78 SW7       29.66R
HAYWARD        CLOUDY    64  61  90 S3        29.68F
SIREN          MOCLDY    64  62  95 S6        29.67F
RICE LAKE      CLOUDY    69  61  76 S9        29.70S
LADYSMITH      CLOUDY    67  58  72 S10G18    29.73S
EAU CLAIRE     CLOUDY    72  59  63 S13       29.71F
MENOMONIE      MOCLDY    73  61  65 S10G17    29.70F
NEW RICHMOND   LGT RAIN  67  65  93 CALM      29.67F
OSCEOLA        CLOUDY    65  65 100 CALM      29.69F
$$

WIZ003>005-009-010-017-018-200300-
NORTH CENTRAL WISCONSIN

CITY           SKY/WX    TMP DP  RH WIND       PRES   REMARKS
WOODRUFF       CLOUDY    65  55  69 SW15G22   29.72R
RHINELANDER    CLOUDY    64  53  67 SW12G25   29.75F
EAGLE RIVER    CLOUDY    64  52  63 SW10G17   29.72S
LAND O LAKES   CLOUDY    65  53  66 SW8G17    29.73R
PHILLIPS       CLOUDY    65  57  75 S14       29.72R
TOMAHAWK       CLOUDY    64  54  70 S6        29.75F
MEDFORD        CLOUDY    65  55  70 S10       29.77F
MERRILL        CLOUDY    66  55  68 S9        29.76F
$$

WIZ029-030-035-036-043>047-200300-
CENTRAL WISCONSIN

CITY           SKY/WX    TMP DP  RH WIND       PRES   REMARKS
WAUSAU         MOCLDY    66  53  63 S14G23    29.77F
MOSINEE        CLEAR     64  55  72 S13G18    29.80F
MARSHFIELD     MOCLDY    66  54  65 S13       29.79F
STEVENS POINT  MOCLDY    65  51  62 SW6       29.84R
WAUPACA        MOCLDY    68  51  55 SW8       29.84R
WAUTOMA        NOT AVBL
WISC RAPIDS    CLOUDY    66  53  63 S6        29.83F
CAMP DOUGLAS   NOT AVBL
$$

WIZ011>013-019>022-031-037>040-048>050-200300-
NORTHEAST WISCONSIN

CITY           SKY/WX    TMP DP  RH WIND       PRES   REMARKS
ANTIGO         CLOUDY    63  53  69 S15       29.80F
STURGEON BAY   CLOUDY    63  52  67 S14G20    29.85R
GREEN BAY      CLOUDY    67  51  56 SW9       29.83R
MANITOWOC      NOT AVBL
APPLETON       MOCLDY    66  48  52 S16G23    29.84S
CLINTONVILLE   MOCLDY    64  52  63 S5        29.83S
OSHKOSH        CLEAR     66  51  58 S14       29.83F
$$

WIZ032>034-041-042-053>061-200300-
SOUTHWEST WISCONSIN

CITY           SKY/WX    TMP DP  RH WIND       PRES   REMARKS
LA CROSSE      MOCLDY    71  58  63 S9        29.80S
SPARTA         PTCLDY    66  54  63 SW5       29.82S
VIROQUA        FAIR      65  55  69 S10       29.84R
BOSCOBEL       CLEAR     70  54  56 SW8       29.85R
PRAIRIE DU CHI CLEAR     71  53  53 S5G21     29.84R
PLATTEVILLE    FAIR      67  54  62 S10G20    29.88F
$$

WIZ056-057-062-063-064-067-068-200300-
SOUTH CENTRAL WISCONSIN

CITY           SKY/WX    TMP DP  RH WIND       PRES   REMARKS
BARABOO/DELLS  CLEAR     67  50  53 S17G24    29.83S
LONE ROCK      NOT AVBL
WATERTOWN      CLEAR     64  50  60 S12G20    29.88F
MADISON        PTCLDY    68  53  58 S14G22    29.86F
MIDDLETON      FAIR      68  51  53 S17G24    29.85F
MONROE         CLEAR     64  54  68 S18       29.90S
JANESVILLE     CLEAR     70  48  46 S15G21    29.91F
$$

WIZ051-052-058>065-066-070>072-200300-
SOUTHEAST WISCONSIN

CITY           SKY/WX    TMP DP  RH WIND       PRES   REMARKS
MILWAUKEE      MOCLDY    66  46  48 S13       29.90F
WAUKESHA       CLEAR     63  46  55 S12G17    29.91F
MILWAUKEE/TIMM CLEAR     66  45  45 S12G20    29.91F
RACINE         CLEAR     66  47  50 S12       29.94F
BURLINGTON     CLEAR     62  46  57 S9        29.92F
KENOSHA        CLEAR     64  48  56 S10       29.94F
FOND DU LAC    CLEAR     66  49  54 S20G29    29.84F
SHEBOYGAN      PTCLDY    62  50  64 S15       29.87S
WEST BEND      CLEAR     64  46  52 S13       29.89R
JUNEAU         CLEAR     65  50  56 S15       29.89R
$$

LSZ147-162-200300-
LAKE SUPERIOR

STATION/POSITION TIME  TEMP    WIND        PRES    WAVE
                       AIR SEA DIR/SP/G            HT/PER
                 (UTC) (F)     (DEG/KT/KT) (MB)    (FT/S)
W MID LAKE BUOY  0050   54 47  230/  6/  6 1003.3F   2/ 4
DEVILS ISLAND    0100   57     280/ 11/ 11 1003.8R
PORT WING        0100   57     270/  6/ 16 1004.4
SAXON HARBOR     0100   68     200/  5/  9 1003.7R
$$

LMZ867-665-643>646-200300-
LAKE MICHIGAN

STATION/POSITION TIME  TEMP    WIND        PRES    WAVE
                       AIR SEA DIR/SP/G            HT/PER
                 (UTC) (F)     (DEG/KT/KT) (MB)    (FT/S)
N MID LAKE BUOY  0050   62 58  200/ 27/ 33 1009.1F   9/ 8
NORTHPORT PIER   0100   62     160/ 10/ 24 1009.8R
SISTER BAY       0042          190/ 24/ 33   N/A
KEWAUNEE LAKESHO 0100   62     190/ 20/ 28 1010.2R
SHEBOYGAN LAKESH 0100   61 54  190/ 26/ 29 1011.7F
PORT WASHINGTON  0140   60     210/  6/ 13 1012.9S
ATWATER BUOY     0100   61     160/ 16/ 17 1013.9F
MILWAUKEE LAKESH 0100   63     180/ 11/ 14   N/A
S MID LAKE BUOY  0050   67 64  170/ 16/ 19 1015.2F   2/ 4
KENOSHA   LAKESH 0100   66     180/ 11/ 12 1014.2F
$$

TC  - TEMPERATURE IN CELSIUS
VSB - VISIBILITY IN STATUTE MILES
WCI - WIND CHILL INDEX
HX  - HEAT INDEX




USA.gov is the U.S. government's official web portal to all federal, state and local government web resources and services.